Regional Weather Roundup
Issued by NWS Grand Forks, ND

Home | Current Version | Previous Version | Text Only | Print | Product List | Glossary On
Versions: 1 2 3 4 5 6 7 8 9 10 11 12 13 14 15 16 17 18 19 20 21 22 23 24 25 26 27 28 29 30 31 32 33 34 35 36 37 38 39 40 41 42 43 44 45 46 47 48 49 50
000
ASUS43 KFGF 251331
RWRFGF
PRAIRIE TO PINES  WEATHER ROUNDUP
NATIONAL WEATHER SERVICE EASTERN NORTH DAKOTA/GRAND FORKS ND
800 AM CDT THU AUG 25 2016

 **SATELLITE DATA USED TO AUGMENT SKY COVER AT AUTOMATED STATIONS**
 *****  WEATHER ACROSS EASTERN NORTH DAKOTA  *****

CITY           SKY/WX    TMP DP  RH WIND       PRES   REMARKS
GRAND FORKS    CLOUDY    59  55  87 W13       29.94R
GRAND FRKS AFB DRIZZLE   59  55  88 NW10G18   29.96R
DEVILS LAKE    CLOUDY    55  52  88 NW13G22   30.04R
FARGO          CLOUDY    59  52  77 W9        30.00R
WAHPETON ARPT  CLOUDY    55  50  82 W13       30.04S
$$

 ***** WEATHER ACROSS CENTRAL AND WESTERN NORTH DAKOTA  *****

CITY           SKY/WX    TMP DP  RH WIND       PRES   REMARKS
BISMARCK       CLOUDY    55  50  83 NW8       30.13R
MINOT          CLOUDY    55  52  89 W15       30.11R
JAMESTOWN      CLOUDY    57  51  80 W15       30.05R
MINOT AFB      MOCLDY    54  50  87 NW12      30.11R
GARRISON         N/A     53  51  93 N15       30.12R
WILLISTON      PTCLDY    53  46  77 W10       30.19R
DICKINSON      CLOUDY    51  45  79 NW12      30.18R
HETTINGER      CLEAR     48  44  86 W9        30.22R
$$

 *****  OTHER AIRPORT OBSERVATIONS IN OUR AREA  *****

CITY           SKY/WX    TMP DP  RH WIND       PRES   REMARKS
WALHALLA       FAIR      57  54  88 NW14G23   29.97R
GRAFTON AIRPOR CLOUDY    57  57 100 NW15G23   29.96R
VALLEY CITY AR CLOUDY    57  54  88 NW18G30   30.06R
CANDO          CLOUDY    55  55 100 N13G20    30.06R
CAVALIER APRT  CLOUDY    57  54  88 NW15G22   29.95R
GWINNER        CLOUDY    55  54  94 SW7       30.07S
SHEYENNE NWR     N/A     57  51  81 W9        29.95S
ROLLA          CLOUDY    54  54 100 NW14G23   30.07R
 ***** THE ABOVE OBSERVATIONS ARE NON NWS ARE NOT QUALITY
       CONTROLLED AND MAY MIS-REPORT RAIN FOR SNOW...
$$

  *****  WEATHER ACROSS NORTHERN MINNESOTA  *****

CITY           SKY/WX    TMP DP  RH WIND       PRES   REMARKS
FLAG ISLAND    CLOUDY    57  55  94 W6        29.83S FOG
WARROAD        CLOUDY    57  54  88 SW8       29.87S
ROSEAU         CLOUDY    57  54  88 SW8       29.87S HAZE
HALLOCK        CLOUDY    57  55  94 NW13G20   29.91R
THF RVR FALLS  LGT RAIN  57  55  94 W12       29.93R FOG
BAUDETTE       CLOUDY    56  53  90 W10       29.86F
WASKISH        CLOUDY    59  55  88 W16G22    29.90S
CROOKSTON      CLOUDY    59  54  82 W13       29.95S
STEPHEN NDAWN    N/A     57  55  94 NW14        N/A
GREENBUSH NDAW   N/A     57  55  94 W7          N/A
$$
  *****  WEATHER ACROSS CENTRAL AND WEST MINNESOTA  *****

CITY           SKY/WX    TMP DP  RH WIND       PRES   REMARKS
FOSSTON        CLOUDY    54  52  94 SW12      29.96S
BEMIDJI        CLOUDY    56  53  89 SW9       29.94S
PARK RAPIDS    CLOUDY    57  53  86 W10       29.98R
ELBOW LAKE     FAIR      54  52  94 W15       30.05R
WADENA         CLOUDY    55  52  88 W7        30.00S
DETROIT LAKES  CLOUDY    55  52  88 W14       30.01S
MOORHEAD       CLOUDY    59  52  77 W12       30.02R
FERGUS FALLS   CLOUDY    55  54  94 W9        30.05S
MORRIS MN      SUNNY     57  54  88 W10       30.05S
STAPLES        SUNNY     55  52  88 W12       30.00F
$$
  *****  WEATHER ELSEWHERE ACROSS MINNESOTA  *****

CITY           SKY/WX    TMP DP  RH WIND       PRES   REMARKS
DULUTH         SUNNY     61  55  81 W12       29.95S
INTRNTL FALLS    N/A     56  53  90 W8        29.88S
ELY            SUNNY     57  54  88 SW7       29.91F
CLOQUET        SUNNY     61  52  72 W8        29.96S
WHEATON        SUNNY     59  54  82 W10G20    30.08S
BRAINERD       SUNNY     58  53  84 W14       29.99S
HIBBING        SUNNY     53  52  96 SW6       29.93F
ALEXANDRIA     SUNNY     57  51  80 W12       30.05R
SAINT CLOUD    SUNNY     60  55  83 W10       30.01S
MINNEAPOLIS    MOSUNNY   64  57  78 W9        30.01F
$$

  *****  WEATHER ACROSS SOUTH DAKOTA  *****

CITY           SKY/WX    TMP DP  RH WIND       PRES   REMARKS
SIOUX FALLS    CLOUDY    59  54  83 NW6       30.12R
BROOKINGS      MOSUNNY   54  50  86 NW7       30.12R
WATERTOWN      SUNNY     55  50  83 W10       30.11R
HURON          SUNNY     54  49  83 NW10      30.14S
SISSETON         N/A     59  51  75 NW10      30.05S
ABERDEEN       SUNNY     51  47  86 SW7       30.11S
MITCHELL       CLOUDY    54  51  90 NW7       30.15S
PIERRE         SUNNY     55  49  80 W10       30.19R
MOBRIDGE       SUNNY     55  47  74 W13       30.14R
RAPID CITY     LGT RAIN  53  43  68 NW7       30.27R
$$

  *****  SOME WEATHER IN NEARBY STATES *****

CITY           SKY/WX    TMP DP  RH WIND       PRES   REMARKS
GLASGOW MT     CLOUDY    50  44  80 W9        30.23R
GREAT FALLS MT CLEAR     40  36  86 SW6       30.29R
CHEYENNE WY    CLOUDY    47  43  86 N13       30.31R
SCOTTSBLUFF NE CLOUDY    54  48  80 E6        30.28R
OMAHA NE       CLOUDY    60  56  86 N5        30.11R
DES MOINES IA  MOSUNNY   68  63  84 VRB3      30.06F
DAVENPORT IA   CLOUDY    69  67  93 CALM      30.04R
CHICAGO IL     CLOUDY    72  69  90 W7        29.98R
EAU CLAIRE WI  SUNNY     64  60  87 SW5       30.01F
LA CROSSE WI   PTSUNNY   67  32  27 CALM      30.03S
$$

  *****  SOME NATIONAL WEATHER *****

CITY           SKY/WX    TMP DP  RH WIND       PRES   REMARKS
LA GUARDIA NY  MOSUNNY   77  64  64 SW12G20   30.11F
RALEIGH NC     PTSUNNY   75  67  76 S5        30.19F
ATLANTA GA     MOSUNNY   76  71  85 CALM      30.23R
NEW ORLEANS LA MOSUNNY   87  79  76 E6        30.09S HX 101
OKLAHOMA CITY  MOSUNNY   74  69  85 S7        30.08R
ALBUQUERQUE NM PTCLDY    58  49  72 N8        30.25R
SALT LAKE CITY PTCLDY    55  35  47 SW3       30.10R
LOS ANGELES CA PTCLDY    64  57  78 CALM      29.95R
BOISE ID       CLEAR     57  33  40 SE9       30.11R
SEATTLE WA     PTCLDY    64  53  67 CALM      30.14S
$$

*** WEATHER ACROSS MANITOBA...SASKATCHEWAN AND ONTARIO ***
                ***ONTARIO***

CITY           SKY/WX    TMP DP  RH WIND       PRES   REMARKS
GERALDTON      FOG       61  61 100 E6        29.81S VSB 1/8
THUNDER BAY    MOSUNNY   63  55  77 W6        29.86S
SIOUX LOOKOUT  PTSUNNY   63  57  82 SW5       29.81S
TORONTO        PTSUNNY   77  72  83 W10       29.92S
BIG TROUT LK   CLOUDY    55  52  88 NW5       29.89F
PICKLE LAKE    LGT RAIN  50  50 100 NE7       29.84R FOG
DRYDEN         CLOUDY    59  57  94 SW8       29.82S
KENORA         PTSUNNY   57  54  88 W3        29.83S
$$
                *** MANITOBA***

CITY           SKY/WX    TMP DP  RH WIND       PRES   REMARKS
BRANDON        PTSUNNY   54  52  94 W9        30.05R
DAUPHIN        SUNNY     52  50  93 W10       30.02S
ISLAND LAKE    MOSUNNY   55  52  88 CALM      29.93S
PILOT MOUND      N/A     54  52  94 NW14        N/A
THE PAS        CLOUDY    55  52  88 W6        30.00S
THOMPSON       MOSUNNY   50  48  93 CALM      29.92S
WINNIPEG       LGT RAIN  55  52  88 N15G23    29.93
LYNN LAKE      SUNNY     55  52  88 MISG      29.95S
CHURCHILL      MOSUNNY   54  52  94 NW8       29.82F
GILLAM         MOSUNNY   50  45  81 S2        29.88F
$$
                ***SASKATCHEWAN***

CITY           SKY/WX    TMP DP  RH WIND       PRES   REMARKS
ESTEVAN        PTCLDY    50  46  87 W7        30.14S
KINDERSLEY     LGT RAIN  52  50  93 NW7       30.16R
LLOYDMINSTER   MOCLDY    55  52  88 W8        30.13F
PRINCE ALBERT  PTCLDY    45  45 100 W5        30.09R
REGINA         PTCLDY    43  43 100 W5        30.14R
YORKTON        CLEAR     48  46  93 W3        30.08R
N. BATTLEFORD  PTCLDY    46 N/A N/A SW3       30.14R
LA RONGE       MOCLDY    50  48  93 CALM      30.04S
SASKATOON      PTCLDY    46  46 100 S2        30.13S
SWIFT CURRENT  CLEAR     48  45  87 SW9       30.17F
$$
NOTE: THESE ARE AUTOMATED STATIONS WITH LIMITED QUALITY CONTROL
      "FAIR" INDICATES FEW OR NO CLOUDS BELOW 12,000 FEET WITH NO
      SIGNIFICANT WEATHER AND/OR OBSTRUCTIONS TO VISIBILITY.
      SKY/WX - SKY CONDITION AND SIGNIFICANT WEATHER.
      TMP - AIR TEMPERATURE.    DP   - DEWPOINT TEMPERATURE.
      RH  - RELATIVE HUMIDITY.  PRES - PRESSURE.
      HX  - HEAT INDEX.         WCI  - WIND CHILL INDEX.
$




USA.gov is the U.S. government's official web portal to all federal, state and local government web resources and services.